#timestamp,LO_Frequency,Hit,StdDev 
1663725615.3,286046999.7,N
1663725635.1,286047002.8,N
1663725655.9,286046999.7,N
1663725675.7,286047000.9,N
1663725695.6,286046999.9,N
1663725715.4,286047000.0,N
1663725735.2,286047000.5,N
1663725755.1,286046998.6,N
1663725756.0,286046998.6,N
1663725775.8,286046998.8,N
1663725795.7,286046998.1,N
1663725815.5,286047000.7,N
1663725835.3,286047000.9,N
1663725855.2,286047000.7,N
1663725875.0,286047000.8,N
1663725875.9,286047000.8,N
1663725895.7,286046998.4,N
1663725915.6,286046998.9,N
1663725935.4,286046999.0,N
1663725955.3,286047000.9,N
1663725975.1,286046998.3,N
1663725995.8,286046998.9,N
1663726015.7,286046999.3,N
1663726035.5,286046997.0,N
1663726055.4,286046998.0,N
1663726075.2,286046998.0,N
1663726095.0,286046995.4,Y
1663726095.9,286046995.4,P
1663726115.8,286046995.3,N
1663726135.6,286046995.0,N
1663726155.5,286046995.7,N
1663726175.3,286046993.6,Y
1663726195.1,286046996.5,P
1663726215.9,286046997.1,P
1663726235.7,286046997.2,P
1663726255.6,286046998.5,Y
1663726275.4,286047001.5,P
1663726295.2,286047002.7,N
1663726315.1,286047001.9,N
1663726316.0,286047001.9,N
1663726335.8,286047001.7,N
1663726355.7,286047001.6,N
1663726375.5,286047002.1,N
1663726395.3,286047000.2,N
1663726415.2,286047000.5,N
1663726435.0,286046999.9,N
1663726435.9,286046999.9,N
1663726455.7,286047000.2,N
1663726475.6,286047002.2,N
1663726495.4,286047002.3,N
1663726515.3,286047002.2,N
1663726535.1,286047000.1,N
1663726536.0,286047000.1,N
1663726555.8,286047000.9,N
1663726575.7,286046998.2,N
1663726595.5,286046998.9,N
1663726615.3,286046999.1,N
1663726635.2,286046999.2,N
1663726655.0,286046999.6,N
1663726655.9,286046999.6,N
1663726675.8,286046997.0,N
1663726695.6,286046998.3,N
1663726715.4,286047000.7,N
1663726735.3,286047000.0,N
1663726755.1,286047002.8,N
1663726775.9,286047002.1,N
1663726795.7,286047002.5,N
1663726815.5,286047002.3,N
1663726835.4,286047002.4,N
1663726855.2,286047002.1,N
1663726875.1,286047001.5,N
1663726876.0,286047001.5,N
1663726895.8,286047002.4,N
1663726915.6,286047002.2,N
1663726935.5,286047001.9,N
1663726955.3,286047001.1,N
1663726975.1,286047001.0,N
1663726995.9,286046999.8,N
1663727015.7,286047000.0,N
1663727035.6,286047001.9,N
1663727055.4,286047002.5,N
1663727075.2,286047001.8,N
1663727095.1,286047001.7,N
1663727096.0,286047001.7,N
1663727115.8,286047002.0,N
1663727135.6,286047002.5,N
1663727155.5,286047002.0,N
1663727175.3,286047001.5,N
1663727195.2,286047002.4,N
1663727215.9,286047003.9,N
1663727235.7,286047001.5,N
1663727255.6,286047002.1,N
1663727275.4,286047001.3,N
1663727295.2,286047001.9,N
1663727315.1,286047001.5,N
1663727316.0,286047001.5,N
1663727335.8,286047002.2,N
1663727355.7,286047004.1,Y
1663727375.5,286047002.8,P
1663727395.3,286047000.7,N
1663727415.2,286047000.4,N
1663727435.0,286046998.5,N
1663727435.9,286046998.5,N
1663727455.8,286047001.1,N
1663727475.6,286047001.1,N
1663727495.4,286046998.6,N
1663727515.3,286046998.3,N
1663727535.1,286046998.2,N
1663727555.8,286046998.3,N
1663727575.7,286047001.0,N
1663727595.5,286046998.3,N
1663727615.4,286046998.7,N
1663727635.2,286046999.5,N
1663727655.0,286046996.9,N
1663727655.9,286046996.9,N
1663727675.8,286046998.5,N
1663727695.6,286047001.2,N
1663727715.4,286046998.2,N
1663727735.3,286046998.3,N
1663727755.1,286046998.6,N
1663727775.9,286046999.3,N
1663727795.7,286046998.3,N
1663727815.5,286046998.6,N
1663727835.4,286046999.6,N
1663727855.2,286046999.5,N
1663727875.0,286046998.4,N
1663727875.9,286046998.4,N
1663727895.8,286046998.1,N
1663727915.6,286046999.0,N
1663727935.5,286046998.7,N
1663727955.3,286046998.7,N
1663727975.1,286046996.9,N
1663727995.9,286046997.9,N
1663728015.7,286046997.5,N
1663728035.5,286046995.2,Y
1663728055.4,286046995.9,P
1663728075.2,286046996.1,N
1663728095.1,286046996.5,N
1663728096.0,286046996.5,Y
1663728115.8,286046999.9,P
1663728135.6,286047002.3,N
1663728155.5,286047004.1,N
1663728175.3,286047002.9,N
1663728195.2,286047003.6,N
1663728215.9,286047002.9,N
1663728235.7,286047005.6,N
1663728255.6,286047003.1,N
1663728275.4,286047004.4,N
1663728295.2,286047002.4,N
1663728315.1,286047001.5,N
1663728316.0,286047001.5,N
1663728335.8,286047003.3,N
1663728355.7,286047005.8,N
1663728375.5,286047007.4,Y
1663728395.3,286047000.2,P
1663728415.2,286047002.2,N
1663728435.0,286047002.5,N
1663728435.9,286047002.5,N
1663728455.8,286047002.7,N
1663728475.6,286047002.7,Y
1663728495.4,286046996.5,P
1663728515.3,286046998.2,N
1663728535.1,286046998.1,N
1663728555.8,286047001.2,N
1663728575.7,286047000.3,N
1663728595.5,286046999.8,N
1663728615.4,286047000.3,N
1663728635.2,286046999.7,N
1663728655.0,286046999.7,N
1663728655.9,286046999.7,N
1663728675.8,286046999.7,N
1663728695.6,286046999.8,N
1663728715.4,286047002.3,N
1663728735.3,286047002.5,N
1663728755.1,286047002.7,N
1663728775.9,286046999.9,N
1663728795.7,286046999.5,N
1663728815.5,286047000.5,N
1663728835.4,286046999.8,N
1663728855.2,286047002.7,N
1663728875.0,286047000.9,N
1663728875.9,286047000.9,N
1663728895.8,286047000.3,N
1663728915.6,286046999.9,N
1663728935.5,286046999.8,N
1663728955.3,286047001.2,N
1663728975.1,286046998.6,N
1663728995.9,286046999.5,N
1663729015.7,286047000.3,N
1663729035.5,286047000.6,N
1663729055.4,286047000.1,N
1663729075.2,286047001.6,N
1663729095.1,286047004.1,Y
1663729096.0,286047004.1,P
1663729115.8,286047003.7,N
1663729135.6,286047004.0,N
1663729155.5,286047004.0,N
1663729175.3,286047002.9,N
1663729195.1,286047003.3,N
